Wind_Speed
26 24 21 22 23 22 22 24 20 25 24 22 18 18 17 15 6 8 14 14 13 17 13 17 14 16 11 10 11 10 11 11 12 11 10 11 10 10 9 10 9 10 9 10
29 25 22 24 25 26 26 24 20 23 28 24 22 16 15 14 9 6 3 9 13 12 10 14 16 16 14 13 12 14 13 13 14 12 9 9 9 8 9 8 9 10 9 10
33 30 31 28 27 27 28 27 23 26 31 23 25 22 18 14 15 14 7 12 12 11 9 14 16 13 13 12 14 13 14 15 15 12 11 10 9 7 8 8 7 8 8 9
35 36 34 32 30 28 27 25 26 26 31 29 29 28 24 20 19 17 12 21 15 13 11 11 15 13 14 15 16 16 15 15 16 15 13 13 13 11 8 7 8 9 8 7
37 36 35 35 34 33 32 30 27 28 33 35 32 31 29 25 22 16 15 11 16 23 18 14 14 16 17 14 16 19 18 16 16 18 15 14 13 12 10 8 6 8 8 6
38 38 39 38 37 39 37 37 35 33 35 34 32 33 30 26 23 18 12 10 13 24 22 18 17 14 13 12 13 16 19 18 18 18 19 16 16 14 12 11 10 10 8 6
39 41 40 41 42 41 40 40 39 36 36 32 33 38 27 24 29 22 18 11 11 13 23 19 16 14 14 13 13 13 17 20 19 19 19 20 18 18 16 15 12 10 10 8
38 37 40 43 43 43 43 43 43 40 36 36 37 40 23 28 29 26 23 17 15 10 25 21 19 17 19 15 12 12 16 21 22 22 22 24 21 19 18 17 14 12 11 8
37 36 40 41 42 46 42 44 41 44 43 44 43 35 24 33 39 31 27 25 20 20 20 27 28 23 25 22 15 14 15 18 24 25 26 24 25 22 20 19 18 16 13 11
34 31 35 36 38 44 45 43 42 45 44 47 46 38 30 26 35 32 39 37 32 30 25 25 25 33 28 29 25 19 16 14 20 27 26 26 25 26 24 21 20 20 17 15
29 28 29 30 34 36 40 41 47 49 49 47 47 44 27 30 32 31 36 40 35 34 25 20 21 27 31 28 27 25 20 17 16 18 27 27 27 26 25 24 23 22 21 19
25 29 26 30 35 36 36 38 39 44 47 51 49 45 34 37 38 37 34 32 33 32 17 18 20 26 27 38 30 25 24 20 19 21 23 28 28 29 27 26 25 24 22 22
27 32 30 29 39 43 44 42 43 42 41 43 51 50 29 44 41 40 40 30 27 30 25 27 22 27 23 31 34 33 29 24 22 20 23 27 28 29 29 28 27 27 24 23
20 26 28 31 37 44 48 47 47 48 47 48 47 50 40 48 47 44 33 31 34 32 32 32 36 31 32 25 26 35 32 30 26 24 21 24 28 30 30 31 31 29 28 26
26 29 33 33 32 39 50 56 52 52 52 54 49 49 51 48 48 49 33 31 40 43 40 37 35 36 36 29 24 36 39 32 30 28 22 20 26 31 34 33 32 32 29 28
27 30 32 37 40 43 43 53 61 58 56 61 58 52 54 52 57 54 39 33 36 44 45 45 46 40 35 36 30 39 39 35 35 31 26 21 23 26 31 34 33 33 32 30
29 32 32 35 39 44 48 48 59 67 62 62 62 57 52 57 60 55 50 39 38 43 50 49 43 41 42 40 33 36 36 44 41 35 29 25 23 24 26 33 36 34 31 32
25 30 34 38 45 47 47 46 52 67 71 66 68 65 58 56 62 63 58 53 42 41 49 54 45 39 36 29 41 50 33 43 43 39 34 28 21 22 25 30 36 37 35 32
22 26 31 37 39 34 33 35 38 63 75 70 68 71 67 61 63 73 65 62 57 43 43 47 48 49 49 43 36 32 42 47 40 41 36 31 26 25 23 26 32 37 38 36
22 25 27 26 32 25 26 26 35 41 61 72 70 75 74 69 64 71 76 70 64 51 48 47 36 42 46 39 33 34 43 41 42 40 35 36 31 26 25 26 31 36 39 38
20 19 21 22 23 23 22 26 33 35 47 48 70 76 76 73 70 72 79 77 67 64 52 57 56 57 55 51 45 36 31 35 42 36 35 37 28 24 27 29 31 33 37 39
17 16 20 19 25 26 21 27 35 34 34 51 63 73 77 75 72 74 76 85 76 73 69 59 62 60 63 58 52 47 40 35 36 44 42 41 30 26 24 27 29 31 33 36
9 12 17 20 20 23 23 22 30 35 40 41 55 62 79 77 72 71 75 73 82 76 76 67 67 61 60 63 57 59 42 42 44 39 43 42 39 33 30 25 25 27 29 32
14 16 15 15 19 21 23 22 25 32 37 42 53 67 68 76 77 76 75 79 78 75 77 75 59 61 66 67 63 62 56 47 47 49 48 39 37 35 36 30 26 25 27 28
14 14 14 16 18 20 23 19 24 27 33 44 50 57 72 76 73 80 77 76 82 78 74 83 76 68 63 67 67 64 59 57 51 49 52 53 46 46 43 33 28 26 25 28
20 20 17 17 17 22 19 20 17 24 24 29 36 50 58 60 72 80 77 79 82 80 78 74 88 79 68 67 71 71 69 66 58 49 50 52 50 46 42 37 34 29 28 28
Wind_Direction
225 222 220 221 217 217 217 223 217 217 206 195 215 237 249 270 286 287 308 216 214 244 234 195 195 159 167 169 169 177 170 168 165 152 150 141 128 122 122 110 131 110 100 92
225 223 218 218 217 215 217 215 207 224 216 208 215 224 244 240 237 276 225 273 243 232 231 195 206 158 167 182 184 175 181 174 173 163 160 145 135 135 126 126 136 118 109 85
225 224 221 219 215 212 220 216 202 216 220 203 223 226 217 222 220 232 237 190 218 226 224 192 199 173 175 191 189 192 184 183 177 171 163 163 157 162 153 147 141 124 106 84
225 227 225 225 226 220 220 219 217 205 213 193 214 223 226 222 212 217 224 188 234 206 213 227 198 183 184 199 195 197 194 195 178 178 175 180 177 175 159 163 157 142 128 109
224 226 227 226 226 231 227 221 217 218 220 215 216 225 233 237 240 221 229 239 205 200 202 204 190 195 192 193 197 199 198 198 187 184 186 186 189 181 170 172 169 161 144 136
224 228 230 230 229 230 229 228 220 216 225 227 220 230 231 247 248 254 254 247 226 223 214 206 204 223 204 184 189 198 199 195 198 193 191 192 193 194 184 179 184 176 161 158
222 223 225 228 229 231 233 237 236 228 227 235 222 234 233 233 243 251 253 248 243 195 210 214 211 220 213 181 174 191 197 194 199 197 197 198 196 191 199 188 190 194 183 171
225 226 228 229 228 234 236 235 236 237 237 239 226 231 240 224 238 244 249 251 232 248 185 209 216 210 220 207 196 195 193 193 195 199 199 201 200 199 199 200 189 198 198 182
226 225 232 231 231 229 227 236 240 240 233 236 239 236 216 225 230 234 244 252 249 246 237 222 223 205 220 218 200 201 202 199 196 201 200 201 204 204 202 208 202 200 206 208
230 227 232 234 233 234 230 230 232 237 237 241 241 234 224 224 223 223 225 222 231 245 240 231 231 225 219 223 208 196 202 209 203 206 207 199 201 207 208 211 214 209 208 216
247 239 230 232 235 238 237 231 234 234 235 239 244 239 216 213 209 212 208 227 225 213 238 242 230 228 218 216 220 200 196 205 217 217 217 207 198 205 208 208 216 219 216 216
240 240 220 226 229 230 233 238 239 240 238 239 239 238 213 216 218 222 224 228 226 227 207 250 239 225 241 218 218 219 204 197 209 216 214 217 204 202 206 206 210 217 218 225
258 249 240 221 222 225 229 233 241 244 242 241 239 238 216 213 218 224 229 220 221 229 217 223 250 248 235 218 234 219 218 207 199 207 214 214 213 204 205 210 212 214 216 222
257 262 259 241 229 229 230 231 233 240 244 243 243 239 223 211 221 227 225 223 209 214 218 220 226 234 242 223 220 217 215 211 207 201 207 211 212 208 206 211 216 219 219 217
255 251 254 256 253 237 229 228 224 233 242 246 240 238 229 214 220 223 217 205 213 215 221 215 219 224 239 231 223 225 220 220 217 210 198 204 205 210 209 210 216 221 223 224
265 257 254 256 264 262 246 233 228 224 227 237 240 230 228 220 215 222 218 207 217 219 218 216 220 230 241 239 239 215 215 220 218 215 205 201 207 208 213 212 213 217 220 224
271 263 262 267 274 275 271 258 233 220 221 226 228 232 233 225 215 214 216 205 209 218 219 221 236 247 240 227 217 192 208 214 215 209 208 208 204 205 212 214 216 216 217 220
272 264 267 278 279 279 277 269 243 221 217 220 225 231 227 224 216 211 212 212 208 217 218 221 201 218 247 211 195 205 209 220 210 210 205 210 205 201 210 217 218 216 218 223
267 269 282 285 274 272 263 233 238 220 216 215 220 229 229 224 216 220 216 214 210 202 220 220 229 232 231 230 217 209 203 207 213 210 206 211 205 201 207 214 220 217 216 220
267 272 284 288 268 262 244 235 241 232 226 214 215 225 229 228 225 217 220 219 216 204 210 216 203 208 217 220 212 213 219 226 237 245 204 216 215 210 204 207 217 217 216 216
262 273 291 276 275 268 260 233 236 237 230 234 211 220 226 227 224 221 220 217 219 223 215 213 214 223 223 230 231 229 231 231 214 197 209 217 218 213 209 206 212 216 216 220
285 289 288 290 275 273 275 248 238 240 239 225 223 218 222 225 226 226 223 223 218 222 207 217 216 208 223 229 234 232 238 229 220 230 205 203 210 216 219 217 213 215 219 219
350 339 319 296 287 283 267 262 249 237 233 233 230 226 222 222 226 227 226 228 228 225 224 213 207 201 210 226 233 235 238 224 209 207 195 203 203 209 216 223 221 220 219 220
12 10 359 335 314 302 286 266 250 244 235 234 232 234 228 226 224 226 228 227 231 229 224 219 225 216 216 231 229 233 240 228 220 214 212 211 214 212 214 217 222 225 223 221
0 350 351 0 347 328 317 297 260 250 244 236 233 233 234 232 229 227 227 227 227 233 227 233 212 217 216 221 225 227 230 236 234 218 211 208 209 211 213 213 223 228 227 223
357 353 350 341 345 356 335 322 293 250 252 248 240 237 236 237 238 235 231 230 228 229 233 231 232 238 214 216 214 225 228 228 232 223 210 207 209 212 214 208 218 226 230 231
Height
5844 5849 5854 5857 5861 5864 5867 5869 5874 5875 5876 5877 5879 5882 5888 5890 5895 5898 5896 5896 5900 5903 5908 5908 5909 5912 5915 5918 5919 5923 5925 5929 5932 5935 5938 5939 5940 5942 5942 5942 5945 5944 5944 5944
5840 5845 5849 5851 5855 5859 5862 5865 5871 5873 5872 5875 5875 5879 5884 5889 5894 5896 5897 5898 5903 5902 5907 5911 5911 5910 5914 5916 5918 5921 5924 5927 5932 5935 5936 5939 5940 5943 5945 5945 5946 5946 5947 5946
5834 5839 5840 5844 5848 5852 5856 5861 5865 5869 5868 5871 5872 5874 5879 5885 5889 5893 5896 5900 5903 5904 5907 5911 5909 5909 5912 5916 5917 5918 5921 5924 5929 5934 5937 5940 5942 5944 5947 5948 5948 5948 5948 5948
5826 5830 5835 5840 5844 5848 5850 5855 5860 5863 5863 5865 5865 5867 5873 5879 5885 5889 5893 5901 5902 5904 5906 5912 5908 5908 5910 5914 5916 5916 5920 5922 5926 5932 5936 5939 5941 5944 5947 5949 5949 5950 5950 5950
5820 5823 5828 5833 5838 5840 5846 5848 5853 5858 5857 5860 5862 5865 5867 5873 5879 5886 5890 5894 5898 5901 5904 5909 5910 5906 5908 5911 5914 5914 5917 5921 5924 5929 5934 5938 5940 5943 5946 5949 5949 5951 5951 5953
5811 5816 5821 5827 5829 5831 5837 5840 5844 5849 5852 5857 5861 5861 5865 5869 5875 5881 5886 5890 5895 5898 5903 5905 5908 5908 5908 5908 5912 5913 5916 5919 5923 5926 5931 5937 5940 5942 5945 5948 5951 5951 5953 5954
5801 5807 5810 5815 5821 5825 5829 5834 5839 5845 5848 5854 5858 5856 5865 5871 5871 5876 5880 5883 5887 5893 5898 5901 5905 5910 5907 5907 5910 5911 5914 5917 5921 5925 5928 5933 5938 5942 5945 5947 5950 5952 5953 5953
5796 5801 5804 5811 5815 5818 5821 5825 5831 5837 5844 5848 5849 5850 5866 5869 5868 5872 5877 5879 5882 5885 5888 5895 5901 5906 5906 5906 5908 5911 5911 5913 5917 5921 5925 5929 5935 5940 5943 5945 5949 5951 5953 5954
5789 5795 5797 5804 5807 5809 5814 5818 5823 5825 5833 5834 5838 5851 5863 5864 5859 5864 5870 5874 5879 5882 5887 5893 5896 5899 5904 5903 5904 5908 5910 5911 5914 5917 5920 5925 5931 5936 5941 5944 5947 5950 5952 5954
5783 5790 5791 5796 5797 5801 5806 5812 5810 5815 5823 5825 5829 5842 5854 5853 5853 5856 5858 5860 5870 5879 5883 5888 5891 5894 5899 5900 5900 5901 5907 5911 5912 5914 5917 5921 5926 5931 5936 5941 5944 5947 5950 5952
5776 5782 5789 5790 5791 5794 5798 5799 5800 5806 5812 5816 5822 5835 5847 5846 5843 5842 5846 5853 5859 5862 5874 5881 5887 5889 5892 5896 5900 5897 5901 5905 5911 5914 5915 5917 5921 5927 5933 5937 5942 5944 5947 5950
5766 5768 5777 5782 5784 5787 5789 5789 5793 5797 5806 5807 5811 5820 5835 5835 5837 5835 5837 5846 5852 5856 5861 5872 5875 5880 5885 5892 5896 5898 5896 5899 5904 5908 5912 5914 5917 5921 5927 5933 5937 5941 5944 5945
5757 5759 5766 5774 5774 5776 5778 5781 5783 5789 5795 5801 5802 5810 5824 5821 5823 5824 5828 5838 5845 5850 5851 5858 5865 5870 5874 5883 5886 5893 5895 5897 5897 5902 5906 5909 5913 5917 5922 5927 5932 5936 5940 5942
5749 5749 5752 5761 5763 5766 5770 5774 5775 5778 5783 5787 5794 5799 5808 5813 5812 5814 5820 5828 5831 5837 5842 5847 5853 5858 5863 5873 5881 5886 5890 5892 5896 5896 5901 5904 5907 5911 5916 5921 5925 5931 5935 5939
5741 5743 5743 5744 5747 5752 5758 5762 5764 5768 5773 5774 5784 5787 5792 5802 5805 5805 5811 5819 5822 5827 5831 5835 5841 5845 5850 5859 5870 5876 5886 5888 5892 5894 5896 5897 5900 5903 5908 5914 5920 5924 5929 5934
5731 5733 5735 5734 5731 5735 5744 5751 5754 5757 5760 5760 5765 5773 5780 5791 5794 5798 5803 5810 5815 5818 5824 5827 5828 5828 5840 5850 5858 5864 5878 5882 5887 5891 5891 5892 5893 5897 5902 5907 5913 5917 5922 5927
5722 5722 5723 5723 5719 5720 5727 5737 5734 5742 5744 5742 5748 5762 5772 5780 5784 5789 5795 5798 5804 5812 5817 5822 5825 5832 5837 5843 5848 5854 5862 5870 5877 5882 5884 5886 5888 5889 5895 5900 5905 5911 5915 5919
5714 5713 5713 5713 5709 5708 5711 5709 5711 5717 5719 5725 5734 5747 5762 5770 5774 5777 5781 5786 5793 5799 5809 5816 5818 5820 5825 5835 5842 5848 5851 5860 5871 5873 5875 5882 5882 5882 5887 5893 5900 5904 5907 5912
5704 5704 5702 5699 5696 5696 5694 5692 5689 5697 5699 5708 5719 5733 5746 5756 5764 5764 5769 5773 5778 5787 5797 5807 5810 5815 5819 5828 5834 5840 5846 5851 5853 5862 5870 5876 5877 5875 5878 5886 5892 5897 5900 5904
5696 5695 5693 5687 5683 5683 5682 5681 5681 5686 5685 5696 5707 5716 5726 5738 5746 5753 5757 5763 5769 5777 5788 5798 5800 5806 5811 5816 5820 5827 5835 5842 5847 5852 5861 5869 5872 5872 5874 5877 5884 5888 5892 5897
5689 5686 5682 5678 5673 5672 5672 5672 5672 5673 5683 5683 5694 5700 5707 5718 5729 5737 5743 5751 5756 5763 5771 5781 5793 5797 5801 5808 5814 5819 5826 5830 5839 5849 5854 5863 5868 5870 5869 5869 5875 5880 5884 5888
5685 5679 5675 5671 5667 5664 5663 5662 5663 5668 5670 5675 5677 5684 5692 5700 5712 5721 5729 5738 5746 5749 5759 5767 5778 5781 5792 5799 5805 5810 5819 5826 5829 5835 5842 5855 5860 5863 5865 5867 5868 5872 5876 5880
5677 5673 5669 5665 5660 5656 5655 5654 5654 5656 5661 5663 5666 5669 5674 5684 5697 5705 5715 5721 5729 5740 5747 5753 5766 5768 5771 5784 5793 5798 5808 5817 5825 5831 5837 5844 5845 5851 5856 5862 5863 5865 5869 5872
5670 5666 5662 5658 5654 5649 5646 5646 5644 5645 5649 5653 5654 5657 5661 5669 5681 5689 5696 5703 5708 5723 5735 5742 5742 5756 5769 5772 5779 5788 5797 5807 5813 5820 5826 5830 5832 5840 5848 5853 5854 5857 5862 5865
5669 5664 5659 5654 5649 5643 5639 5637 5636 5636 5637 5640 5643 5645 5650 5656 5667 5672 5680 5688 5694 5703 5718 5724 5732 5741 5748 5757 5766 5777 5785 5792 5800 5808 5813 5820 5826 5833 5838 5844 5847 5851 5855 5856
5667 5663 5658 5653 5648 5641 5636 5630 5627 5628 5629 5628 5630 5635 5640 5645 5650 5654 5665 5674 5680 5688 5697 5711 5715 5721 5732 5743 5751 5765 5775 5780 5789 5796 5803 5809 5816 5822 5828 5833 5839 5844 5847 5848